Regional Weather Roundup
Issued by NWS San Angelo, TX

Home | Current Version | Previous Version | Text Only | Print | Product List | Glossary On
Versions: 1 2 3 4 5 6 7 8 9 10 11 12 13 14 15 16 17 18 19 20 21 22 23 24 25 26 27 28 29 30 31 32 33 34 35 36 37 38 39 40 41 42 43 44 45 46 47 48 49 50
000
ASUS44 KSJT 300910
RWRSJT
WEST CENTRAL TEXAS REGIONAL WEATHER ROUNDUP
NATIONAL WEATHER SERVICE SAN ANGELO TX
400 AM CDT MON MAR 30 2015

NOTE: "FAIR" INDICATES FEW OR NO CLOUDS BELOW 12,000 FEET WITH NO
SIGNIFICANT WEATHER AND/OR OBSTRUCTIONS TO VISIBILITY.

TXZ049-054-064>066-071>073-076>078-098-099-113-114-127-128-139-140-
154-155-168>170-301000
...LOCATIONS ACROSS WEST CENTRAL TEXAS...

CITY           SKY/WX    TMP DP  RH WIND       PRES   REMARKS
SAN ANGELO     CLEAR     59  47  64 NE7       30.12S
ABILENE        CLEAR     57  45  64 CALM      30.13F
DYESS AFB      CLEAR     54  45  72 SW6       30.13S
JUNCTION       PTCLDY    57  53  86 CALM      30.11F
SWEETWATER     PTCLDY    56  41  57 NE6       30.19S
BROWNWOOD      CLEAR     55  50  82 NW6       30.10S
COLEMAN        SUNNY     58  49  70 N5        30.11S
SONORA         MOCLDY    57  50  77 CALM      30.15F
OZONA          FAIR      61  46  59 N6        30.15S
BRADY          CLEAR     59  52  77 NW5       30.10F
$$

TEXAS PANHANDLE/OKLAHOMA PANHANDLE

CITY           SKY/WX    TMP DP  RH WIND       PRES   REMARKS
AMARILLO       PTCLDY    50  26  39 SE12      30.23S
BORGER         CLEAR     55  26  32 S6        30.20F
CANADIAN       CLEAR     42  33  71 CALM      30.19F
DALHART        MOCLDY    46  26  45 SW3       30.21F
DUMAS          MOSUNNY   40  25  54 S10       30.20F WCI  34
GUYMON         NOT AVBL
HEREFORD       MOSUNNY   39  30  70 CALM      30.23F
PAMPA          SUNNY     48  28  45 SE13      30.19F
PERRYTON       PTCLDY    39  28  66 SE8       30.19F WCI  33
$$

SOUTHERN PANHANDLE/SOUTH PLAINS/ROLLING PLAINS

CITY           SKY/WX    TMP DP  RH WIND       PRES   REMARKS
LUBBOCK        CLOUDY    49  29  46 NE9       30.18F
SNYDER         PTCLDY    55  39  54 NE6       30.18S
CHILDRESS      MOCLDY    50  29  44 N9        30.17F
SEMINOLE       PTSUNNY   53  36  52 CALM      30.21S
$$

PERMIAN BASIN

CITY           SKY/WX    TMP DP  RH WIND       PRES   REMARKS
MIDLAND        MOCLDY    56  40  55 NE5       30.16S
ODESSA         MOCLDY    53  40  61 E8        30.16F
WINK           PTCLDY    55  36  48 N8        30.15R
$$

FAR WEST/SOUTHWEST MOUNTAINS/TRANS PECOS

CITY           SKY/WX    TMP DP  RH WIND       PRES   REMARKS
ALPINE         SUNNY     46  39  76 SW3       30.24F
DRYDEN           N/A     68  54  60 NE10      30.07F
EL PASO        CLOUDY    70  32  24 E8        30.16R
FORT STOCKTON  MOCLDY    58  45  62 CALM      30.14S
GUADALUPE PASS PTCLDY    57  31  37 NE33G43   30.25F
MARFA          PTCLDY    52  37  58 N9        30.21F
PECOS          PTSUNNY   55  42  61 NW8       30.16S
$$

DALLAS/FORT WORTH METROPLEX

CITY           SKY/WX    TMP DP  RH WIND       PRES   REMARKS
DFW AIRPORT    PTCLDY    63  55  75 S6        30.09S
FTW MEACHAM    CLEAR     62  54  74 CALM      30.08S
DAL-EXECUTIVE  CLEAR     63  56  78 CALM      30.10R
GRAND PRAIRIE  NOT AVBL
ADDISON        CLEAR     65  56  70 E5        30.12S
MESQUITE       SUNNY     62  57  84 CALM      30.11R
LANCASTER      SUNNY     59  55  85 CALM      30.10S
$$

NORTH CENTRAL TEXAS

CITY           SKY/WX    TMP DP  RH WIND       PRES   REMARKS
SHRMAN/DENISON SUNNY     57  49  72 NE6       30.14S
GAINESVILLE    CLEAR     56  45  65 N7        30.15S
BRIDGEPORT     SUNNY     62  45  53 NE9       30.13S
DENTON         CLEAR     61  46  57 NE9       30.10S
WAXAHACHIE     SUNNY     61  58  90 CALM      30.10S
GRANBURY         N/A     63  57  82 NE3       30.09S
$$

WESTERN NORTH TEXAS

CITY           SKY/WX    TMP DP  RH WIND       PRES   REMARKS
WICHITA FALLS  CLEAR     48  42  80 N7        30.13F
VERNON         MOSUNNY   50  36  58 N5        30.17F
BRECKENRIDGE   SUNNY     62  45  54 NE7       30.10F
COMANCHE       CLEAR     61  51  71 NW7       30.09S
$$

CENTRAL AND SOUTH CENTRAL TEXAS

CITY           SKY/WX    TMP DP  RH WIND       PRES   REMARKS
AUSTIN/BERGSTM CLOUDY    62  61  96 S8        30.10F
WACO           CLEAR     61  59  93 S10       30.10S
HILLSBORO      SUNNY     64  58  83 S12G18    30.08F
TEMPLE         CLOUDY    63  57  82 S8        30.09S
KILLEEN-GRAY   MOCLDY    61  61 100 S6        30.09S
FORT HOOD      MOCLDY    63  61  94 S7        30.09S
GEORGETOWN     CLOUDY    64  61  88 S12G20    30.09F
LAGO VISTA     CLOUDY    65  61  86 S9G16     30.11F
SAN MARCOS     CLOUDY    61  57  88 SW3       30.12F
NEW BRAUNFELS  CLOUDY    62  60  93 CALM      30.10F
RANDOLPH AFB   CLOUDY    63  63 100 CALM      30.11F
SAN ANTONIO    CLOUDY    64  62  93 E5        30.11F
STINSON        CLOUDY    64  62  93 SE5       30.09F
PLEASANTON     NOT AVBL
LA GRANGE      PTCLDY    67  64  91 S3        30.10S
GIDDINGS       SUNNY     64  62  91 SW5       30.15S
$$

EAST TEXAS

CITY           SKY/WX    TMP DP  RH WIND       PRES   REMARKS
PARIS          NOT AVBL
CLARKSVILLE    NOT AVBL
TYLER          PTCLDY    65  59  81 S9        30.11F
LONGVIEW       CLEAR     62  58  86 CALM      30.11F
PALESTINE      PTSUNNY   65  61  88 S5        30.14R
NACOGDOCHES    CLEAR     63  57  82 S5        30.15S
$$

TEXAS HILL COUNTRY AND EDWARDS PLATEAU

CITY           SKY/WX    TMP DP  RH WIND       PRES   REMARKS
LLANO          SUNNY     61  57  88 CALM      30.12S
HORSESHOE BAY  CLOUDY    64  61  89 S3        30.09F
KERRVILLE      CLOUDY    63  60  93 S7        30.12F
FREDERICKSBRG  CLOUDY    59  58  97 CALM      30.11F
ROCKSPRINGS    NOT AVBL
HONDO          CLOUDY    62  60  93 MISG      30.11F
UVALDE         MOSUNNY   61  60  96 E6        30.09F
DEL RIO        CLOUDY    68  60  75 E10       30.03F
$$

SOUTHEAST TEXAS

CITY           SKY/WX    TMP DP  RH WIND       PRES   REMARKS
COLLEGE STN    CLEAR     63  60  90 S5        30.12F
CALDWELL       PTSUNNY   64  64 100 S6        30.14F
CROCKETT       PTSUNNY   66  64  94 S7        30.16F
BRENHAM        CLOUDY    67  65  91 S3        30.14S
HUNTSVILLE     CLOUDY    66  62  87 S8        30.14F
CONROE         CLOUDY    65  62  90 CALM      30.15R
HOUSTON BUSH   PTCLDY    64  63  96 S5        30.12F
HOUSTON HOBBY  PTCLDY    62  61  96 CALM      30.12F
PERLAND        CLEAR     65  62  90 S3        30.14F
WHARTON        SUNNY     62  61  97 S3        30.13F FOG
$$

THE UPPER TEXAS COAST

CITY           SKY/WX    TMP DP  RH WIND       PRES   REMARKS
ORANGE         SUNNY     67  61  82 S8        30.15F
PORT ARTHUR    CLEAR     64  62  93 S7        30.13F
GALVESTON      CLEAR     68  65  90 S12       30.14F
ANGLETON       FOG       61  61 100 S3        30.12F VSB 3/4
BAY CITY       SUNNY     64  64 100 S3        30.12F
$$

TEXAS COASTAL BEND, RIO GRANDE PLAINS DEEP SOUTH TEXAS

CITY           SKY/WX    TMP DP  RH WIND       PRES   REMARKS
VICTORIA       CLOUDY    67  66  97 S6        30.12F
BEEVILLE       CLOUDY    66  66 100 SE6       30.08F
ROCKPORT       CLEAR     69  65  86 S7        30.09F
PORT ARANSAS   SUNNY     67  65  95 S12       30.08F
PORT LAVACA    PTSUNNY   65  64  96 S5        30.11F
CORPUS CHRISTI MOCLDY    66  64  93 S13       30.07F
KINGSVILLE NAS PTCLDY    68  67  96 S12       30.06F
COTULLA        PTCLDY    65  61  87 SE7       30.06F
LAREDO         MOCLDY    66  63  90 SE10      30.04F
BROWNSVILLE    CLEAR     69  67  93 S10       30.07F
PORT ISABEL    PTCLDY    69  66  90 S12       30.06F
HEBBRONVILLE   NOT AVBL
MCALLEN        CLOUDY    71  67  87 S17G26    30.05F
WESLACO        CLOUDY    68  65  90 S10       30.05F
FALFURRIAS     CLOUDY    67  64  92 SE6       30.06F
EDINBURG       CLOUDY    70  66  87 S9        30.06S
$$


USA.gov is the U.S. government's official web portal to all federal, state and local government web resources and services.